Tracking 35331 objects as of 14-Sep-2026
HD Live streaming from Space Station
objects crossing your sky now

FREGAT DEB

Track FREGAT DEB now!
10-day predictions


NORAD ID: 46007
Int'l Code: 2011-037HJ
Launch date: July 18, 2011
Source: Commonwealth of Independent States (former USSR) (CIS)
Launch site: TYURATAM MISSILE AND SPACE COMPLEX (TTMTR)

Note: This is SATELLITE DEBRIS
Your satellite tracking list
Your tracking list is empty




NASA's NSSDC Master Catalog

Two Line Element Set (TLE):
1 46007U 11037HJ  21080.69514157 -.00050679  00000-0 -19342+0 0  9995
2 46007  50.9375 203.2360 1989720 107.7298 274.9274 10.16334945 23178
Source of the keplerian elements: AFSPC